Weather History for Providence, RI

Change the Weather History Date:

Friday, January 18, 2013

  Actual Average Record
Temperature  
Mean Temperature 26 °F 29 °F  
Max Temperature 33 °F 37 °F 62 °F (1973)
Min Temperature 18 °F 21 °F -9 °F (1982)
Degree Days  
Heating Degree Days 39 36  
Month to date heating degree days 547 644  
Since 1 July heating degree days 2387 2671  
Cooling Degree Days 0 0  
Month to date cooling degree days 0 0  
Year to date cooling degree days 0 0  
Moisture  
Dew Point 4 °F    
Average Humidity 40    
Maximum Humidity 53    
Minimum Humidity 26    
Precipitation  
Precipitation T in 0.12 in 1.65 in (1915)
Month to date precipitation 0.96 2.26  
Year to date precipitation 0.96 2.26  
Snow  
Snow T in 0.30 in 7.50 in (2009)
Month to date snowfall 3.0 5.3  
Since 1 July snowfall 13.6 15.5  
Snow Depth 0.00 in    
Sea Level Pressure  
Sea Level Pressure 30.31 in    
Wind  
Wind Speed 12 mph (NW)    
Max Wind Speed 22 mph    
Max Gust Speed 33 mph    
Visibility 10 miles    
Events Snow    
T = Trace of Precipitation, MM = Missing Value Source: NWS Daily Summary

Daily Weather History Graph

Daily Weather History Graph

Search for Another Location

Airport:

Trip Planner

Search our weather history database for the weather conditions in past years. The results will help you decide how hot, cold, wet, or windy it might be!

Date:

Astronomy

Jan. 18, 2013 Rise Set
Actual Time 7:08 AM EST 4:44 PM EST
Civil Twilight 6:38 AM EST 5:14 PM EST
Nautical Twilight 6:04 AM EST 5:48 PM EST
Astronomical Twilight 5:31 AM EST 6:21 PM EST
Moon 10:38 AM EST (1/18) No Moon Set
Length of Visible Light 10h 36m
Length of Day
9h 35m
Waxing Crescent, 47% of the Moon is Illuminated
Jan 18
Waxing Crescent
Jan 18
First Quarter
Jan 26
Full
Feb 3
Last Quarter
Feb 10
New

Hourly Weather History & Observations

Time (EST) Temp. Windchill Dew Point Humidity Pressure Visibility Wind Dir Wind Speed Gust Speed Precip Events Conditions
12:51 AM 32.0 °F 21.2 °F 15.1 °F 50% 30.06 in 10.0 mi North 16.1 mph - N/A   Overcast
1:51 AM 30.2 °F 18.9 °F 15.8 °F 55% 30.05 in 10.0 mi North 16.1 mph 20.7 mph N/A   Overcast
2:51 AM 28.9 °F 18.2 °F 12.9 °F 51% 30.08 in 9.0 mi North 13.8 mph - 0.00 in Snow Light Snow
3:51 AM 28.9 °F 19.2 °F 12.0 °F 49% 30.07 in 10.0 mi NNE 11.5 mph - 0.00 in   Overcast
4:51 AM 28.0 °F 16.5 °F 7.0 °F 41% 30.09 in 9.0 mi North 15.0 mph - 0.00 in Snow Light Snow
5:51 AM 27.0 °F 15.2 °F 3.9 °F 37% 30.16 in 10.0 mi North 15.0 mph - 0.00 in   Overcast
6:51 AM 24.1 °F 12.0 °F 6.1 °F 46% 30.20 in 10.0 mi North 13.8 mph - N/A   Scattered Clouds
7:51 AM 23.0 °F 11.7 °F 5.0 °F 46% 30.26 in 10.0 mi North 11.5 mph - N/A   Scattered Clouds
8:51 AM 23.0 °F 10.1 °F 1.0 °F 39% 30.32 in 10.0 mi North 15.0 mph - N/A   Scattered Clouds
9:51 AM 23.0 °F 10.1 °F -2.0 °F 34% 30.35 in 10.0 mi North 15.0 mph - N/A   Scattered Clouds
10:51 AM 24.1 °F 13.7 °F -2.0 °F 32% 30.37 in 10.0 mi NNW 10.4 mph 18.4 mph N/A   Scattered Clouds
11:51 AM 25.0 °F 11.3 °F -2.0 °F 31% 30.36 in 10.0 mi NW 18.4 mph 25.3 mph N/A   Partly Cloudy
12:51 PM 26.1 °F 11.3 °F -4.0 °F 27% 30.38 in 10.0 mi NNW 23.0 mph 33.4 mph N/A   Partly Cloudy
1:51 PM 26.1 °F 12.7 °F -4.0 °F 27% 30.38 in 10.0 mi NW 18.4 mph 24.2 mph N/A   Partly Cloudy
2:51 PM 26.1 °F 12.7 °F -2.9 °F 28% 30.40 in 10.0 mi NW 18.4 mph 24.2 mph N/A   Partly Cloudy
3:51 PM 26.1 °F 17.6 °F -2.0 °F 30% 30.41 in 10.0 mi WNW 8.1 mph - N/A   Partly Cloudy
4:51 PM 24.8 °F 14.0 °F -2.2 °F 31% 30.43 in 10.0 mi WNW 11.5 mph - N/A   Scattered Clouds
5:51 PM 23.0 °F 15.8 °F -0.0 °F 37% 30.45 in 10.0 mi WNW 5.8 mph - N/A   Scattered Clouds
6:51 PM 19.9 °F 13.4 °F 3.0 °F 48% 30.48 in 10.0 mi SSE 4.6 mph - N/A   Scattered Clouds
7:51 PM 19.0 °F 11.1 °F 3.9 °F 52% 30.49 in 10.0 mi South 5.8 mph - N/A   Partly Cloudy
8:51 PM 19.9 °F 12.1 °F 3.0 °F 48% 30.48 in 10.0 mi SW 5.8 mph - N/A   Partly Cloudy
9:51 PM 19.0 °F 11.1 °F 5.0 °F 54% 30.46 in 10.0 mi SSW 5.8 mph - N/A   Partly Cloudy
10:51 PM 19.9 °F 14.9 °F 3.0 °F 48% 30.45 in 10.0 mi South 3.5 mph - N/A   Clear
11:51 PM 19.9 °F 13.4 °F 6.1 °F 55% 30.42 in 10.0 mi South 4.6 mph - N/A   Scattered Clouds